Location: *
(55.6049°S, 142.1985°W)
Time: 00:16:59
(UTC+00:00)

IRS-1C Rocket - Pass Details

Date: 12 May 2021
Orbit: 800 x 805 km, 98.9° (Epoch: 18 June)

Event Time Altitude Azimuth Distance (km) Brightness Sun altitude
Rises 15:30:07 0° 28° (NNE) 3,324 7.9 -14.3°
Reaches altitude 10° 15:32:26 10° 30° (NNE) 2,401 7.2 -14.0°
Maximum altitude 15:37:43 70° 112° (ESE) 875 4.5 -13.3°
Drops below altitude 10° 15:43:04 10° 194° (SSW) 2,430 6.3 -12.6°
Sets 15:45:26 0° 195° (SSW) 3,368 7.0 -12.2°
